Location: Unspecified
(48.8656°N, 0.0000°E)
Time: 12:13:26
(UTC+00:00)

SR - Pass Details

Date: 27 June 2019
Orbit: 580 x 876 km, 66.7° (Epoch: 21 July)

Event Time Altitude Azimuth Distance (km) Brightness Sun altitude
Rises 02:23:56 0° 201° (SSW) 2,787 - -11.2°
Reaches altitude 10° 02:26:09 10° 197° (SSW) 1,891 - -11.0°
Exits shadow 02:26:50 14° 195° (SSW) 1,629 ? -11.0°
Maximum altitude 02:30:16 55° 120° (ESE) 713 ? -10.7°
Drops below altitude 10° 02:34:32 10° 43° (NE) 1,961 ? -10.3°
Sets 02:36:52 0° 39° (NE) 2,902 ? -10.1°
